Find Starlink 1628

NORAD ID: 46169 Int'l Des: 2020-057 Owner: SPXS Country: US Constellation: starlink decayed
LEOCIRCULAR
Vis

Historical Track — Oct 29, 2025

正在加载3D地球...

关于 Starlink 1628

正在加载描述...

高度历史

Loading altitude history...

两行轨道根数

1 46169U 20057BE 25302.55099126 .11839407 12054-4 37836-2 0 9997
2 46169 53.0210 66.3634 0007003 319.3748 40.6769 16.25483041287915
Epoch: Oct 29, 2025 • Age: 4500 hours

当前状态

Position data unavailable
发射日期 Aug 18, 2020
运行时间 5.7 years
衰减日期 Oct 29, 2025
类型 internet

技术详情

分类 Payload
质量 260.00 kg
干质量 248.00 kg
总质量 260.00 kg
长度 0.20 m
直径 2.80 m
跨度 9.00 m
形状 Box + pan
制造商 SPXS
平台类型 Starlink
阶段状态 Unknown Transfer Status
所有者/国家 SPXS/US

Most Searched